HETCH HETCHY (HTH)

Elevation: 3870' · TUOLUMNE R basin · Operator: Hetch Hetchy Water and Power

Provisional data, subject to change.
Query executed Sunday at 5:17:59   clock

Select a sensor type for a plot of data.
Note: Reservoir Flows are daily averages.

Earlier

Date RES ELE    STORAGE    RES CHG    OUTFLOW    INFLOW    PPT INC    RAIN    PPTINC4   
 FEET   AF   AF   CFS   CFS   INCHES   INCHES   INCHES  
07/29/2016 -- 349380 -- 581 -- 0.00 38.59 0.00
07/30/2016 -- 248600 -- 582 -- 0.00 38.59 0.00
07/31/2016 -- 347625 -- 627 -- 0.00 38.59 0.00
08/01/2016 -- 346845 -- 573 -- 0.00 38.59 0.00
08/02/2016 -- 345874 -- 562 -- 0.00 38.59 0.00
08/03/2016 -- 345098 -- 580 -- 0.00 38.59 0.00
08/04/2016 -- 344128 -- 559 -- 0.00 38.59 0.00
08/05/2016 -- 343352 -- 558 -- 0.00 38.59 0.00
08/06/2016 -- 342382 -- 572 -- 0.00 38.59 0.00
08/07/2016 -- 341218 -- 567 -- 0.00 38.59 0.00
08/08/2016 -- 340444 -- 535 -- 0.00 38.59 0.00
08/09/2016 -- 339286 -- 544 -- 0.00 38.59 0.00
08/10/2016 -- 338321 -- 573 -- 0.00 38.59 0.00
08/11/2016 -- 337356 -- 592 -- 0.00 38.59 0.00
08/12/2016 -- 336586 -- 327 -- 0.00 38.59 0.00
08/13/2016 -- 335626 -- 599 -- 0.00 38.59 0.00
08/14/2016 -- 334666 -- 552 -- 0.00 38.59 0.00
08/15/2016 -- 333514 -- 587 -- 0.00 38.59 0.00
08/16/2016 -- 332362 -- 604 -- 0.00 38.59 0.00
08/17/2016 -- 331402 -- 578 -- 0.00 38.59 0.00
08/18/2016 -- 330637 -- 509 -- 0.00 38.59 0.00
08/19/2016 -- 329300 -- 520 -- 0.00 38.59 0.00
08/20/2016 -- 328154 -- 608 -- 0.00 38.59 0.00
08/21/2016 -- 327008 -- 618 -- 0.00 38.59 0.00
08/22/2016 -- 325862 -- 660 -- 0.00 38.59 0.00
08/23/2016 -- 324720 -- 659 -- 0.00 38.59 0.00
08/24/2016 -- 323580 -- 601 -- 0.00 38.59 0.00
08/25/2016 -- 322630 -- 564 -- 0.00 38.59 0.00
08/26/2016 -- -- -- -- -- -- 38.59 0.00
08/27/2016 -- -- -- -- -- -- -- 0.00
08/28/2016 -- -- -- -- -- -- -- --

Later | Latest

Warning! This data is preliminary and subject to revision.

Show HTH Map | Plot HTH Data | 1 Month HTH Data | Real-Time HTH Data | HTH Info